KUIPER-00606

导读

基本信息
目录编号:
69289
目录名称:
KUIPER-00606
国际标识:
2026-118Y
轨道中心:
EARTH
卫星名称:
KUIPER-00606
卫星全名:
KUIPER-00606
卫星状态:
在轨 (已飞行14 天)
发射日期:
2026-05-29 UTC
国别 :
美国 (US)
星等 :
--
轨道信息
数据来源 国际轨道数据 AOE轨道数据
星历时间 2026-06-12T14:02:42+0800
15小时前
查看轨道信息
2026-06-11T17:00:00+0800
1天前
查看轨道信息
半长轴 6831.212km 6831.12km
偏心率 0.0004788 0.0004838
轨道倾角 51.869° 51.869°
近地点辐角 133.184° 134.364°
升交点赤经 77.106° 81.347°
平近点角 226.955° 48.830°
近地点 449.804km 449.678km
远地点 456.346km 456.288km
周期 93.650分钟 93.648分钟
每日圈数 15.376454 15.376765
详细信息
使用方式:
暂无
2D轨道图
3D轨道图
轨道高度分析图
轨道倾角分析图
轨道综合分析图
查看轨道综合分析图